Starlink 30711

operational
NORAD ID: 57940 Int'l Des: 2023-148 Owner: SPXS Country: US Constellation: starlink
LEOCIRCULAR

About Starlink 30711

Description loading...

Live Position

Loading 3D Globe...

Upcoming Passes

Altitude History

Altitude vs Time

uPlot chart will show altitude changes over time

Two-Line Element Set

1 57940U 23148F 25258.02546729 .00000265 00000-0 21062-4 0 9998
2 57940 53.1601 120.4137 0001296 84.0425 276.0723 15.30196255111526
Epoch: Sep 15, 2025 • Age: 20 hours

Current Status

Altitude 476.5 km
Velocity 7.63 km/s
Sub-Earth Point -1.79°S, 0.3°W
Launch Date Sep 25, 2023
Age 1.9 years
Type internet

Technical Details

Classification Payload
Mass 730.00 kg
Dry Mass 700.00 kg
Total Mass 730.00 kg
Length 0.30 m
Diameter 4.10 m
Span 29.00 m
Shape Box + pan
Manufacturer SPXS
Bus Type Starlink V2M
Phase Status In Orbit
Owner/State SPXS/US

Large Constellations

Loading constellations...